Location: Campillo
(40.8621°N, 4.2488°W)
Time: 12:35:26
(UTC+00:00)

SJ 16-02 - Pass Details

Date: 11 May 2021
Orbit: 605 x 616 km, 75.0° (Epoch: 14 June)

Event Time Altitude Azimuth Distance (km) Brightness Sun altitude
Exits shadow 21:19:32 41° 139° (SE) 892 1.6 -18.6°
Maximum altitude 21:20:25 48° 103° (ESE) 808 1.6 -18.7°
Drops below altitude 10° 21:24:41 10° 29° (NNE) 1,985 4.2 -19.2°
Sets 21:26:59 0° 24° (NNE) 2,895 5.1 -19.5°
